User: anonymous   Login
Location: Luz Observatory
(34.5000°N, 117.2833°W)
Time: 23:54:26
(UTC-07:00)
Language:

Cosmos 1452 Rocket - Orbit

View from above orbital plane
View from above orbital plane
View from above satellite
View from above satellite

Ground track
Ground track

The orbit data is extracted from the following two-line orbital elements,

1 13992U 83031B   16176.56766704  .00000053  00000-0  27254-4 0  9993
2 13992  74.0541 303.0246 0005038   2.3861  74.1635 14.36040397737472
Epoch (UTC): 24 June 2016 13:37:26
Eccentricity: 0.0005038
inclination: 74.0541°
perigee height: 768 km
apogee height: 775 km
right ascension of ascending node: 303.0246°
argument of perigee: 2.3861°
revolutions per day: 14.36040397
mean anomaly at epoch: 74.1635°
orbit number at epoch: 73747

The dashed part of the orbit path shows where the satellite is in the earth's shadow,  

DLR